Year,Month,Day,Hour,Minute,Value (Times are PST for temperature in C)
2012,08,16,00,00,18.30
2012,08,16,00,01,18.30
2012,08,16,00,02,18.30
2012,08,16,00,03,18.30
2012,08,16,00,04,18.20
2012,08,16,00,05,18.20
2012,08,16,00,06,18.20
2012,08,16,00,07,18.20
2012,08,16,00,08,18.20
2012,08,16,00,09,18.20
2012,08,16,00,10,18.20
2012,08,16,00,11,18.10
2012,08,16,00,12,18.10
2012,08,16,00,13,18.10
2012,08,16,00,14,18.10
2012,08,16,00,15,18.10
2012,08,16,00,16,18.00
2012,08,16,00,17,18.00
2012,08,16,00,18,18.00
2012,08,16,00,19,18.00
2012,08,16,00,20,17.90
2012,08,16,00,21,17.90
2012,08,16,00,22,17.90
2012,08,16,00,23,17.90
2012,08,16,00,24,17.90
2012,08,16,00,25,17.90
2012,08,16,00,26,17.90
2012,08,16,00,27,17.90
2012,08,16,00,28,17.90
2012,08,16,00,29,17.80
2012,08,16,00,30,17.80
2012,08,16,00,31,17.80
2012,08,16,00,32,17.80
2012,08,16,00,33,17.80
2012,08,16,00,34,17.80
2012,08,16,00,35,17.80
2012,08,16,00,36,17.80
2012,08,16,00,37,17.80
2012,08,16,00,38,17.80
2012,08,16,00,39,17.80
2012,08,16,00,40,17.80
2012,08,16,00,41,17.80
2012,08,16,00,42,17.80
2012,08,16,00,43,17.80
2012,08,16,00,44,17.80
2012,08,16,00,45,17.70
2012,08,16,00,46,17.70
2012,08,16,00,47,17.70
2012,08,16,00,48,17.70
2012,08,16,00,49,17.70
2012,08,16,00,50,17.70
2012,08,16,00,51,17.60
2012,08,16,00,52,17.60
2012,08,16,00,53,17.60
2012,08,16,00,54,17.60
2012,08,16,00,55,17.60
2012,08,16,00,56,17.60
2012,08,16,00,57,17.60
2012,08,16,00,58,17.50
2012,08,16,00,59,17.50
2012,08,16,01,00,17.50
2012,08,16,01,01,17.50
2012,08,16,01,02,17.50
2012,08,16,01,03,17.50
2012,08,16,01,04,17.40
2012,08,16,01,05,17.40
2012,08,16,01,06,17.40
2012,08,16,01,07,17.40
2012,08,16,01,08,17.40
2012,08,16,01,09,17.40
2012,08,16,01,10,17.40
2012,08,16,01,11,17.30
2012,08,16,01,12,17.30
2012,08,16,01,13,17.30
2012,08,16,01,14,17.30
2012,08,16,01,15,17.30
2012,08,16,01,16,17.30
2012,08,16,01,17,17.30
2012,08,16,01,18,17.30
2012,08,16,01,19,17.30
2012,08,16,01,20,17.30
2012,08,16,01,21,17.20
2012,08,16,01,22,17.20
2012,08,16,01,23,17.20
2012,08,16,01,24,17.20
2012,08,16,01,25,17.20
2012,08,16,01,26,17.20
2012,08,16,01,27,17.20
2012,08,16,01,28,17.10
2012,08,16,01,29,17.10
2012,08,16,01,30,17.10
2012,08,16,01,31,17.10
2012,08,16,01,32,17.10
2012,08,16,01,33,17.10
2012,08,16,01,34,17.10
2012,08,16,01,35,17.10
2012,08,16,01,36,17.00
2012,08,16,01,37,17.00
2012,08,16,01,38,17.00
2012,08,16,01,39,17.00
2012,08,16,01,40,16.90
2012,08,16,01,41,16.90
2012,08,16,01,42,16.90
2012,08,16,01,43,16.90
2012,08,16,01,44,16.90
2012,08,16,01,45,16.80
2012,08,16,01,46,16.80
2012,08,16,01,47,16.80
2012,08,16,01,48,16.80
2012,08,16,01,49,16.80
2012,08,16,01,50,16.80
2012,08,16,01,51,16.80
2012,08,16,01,52,16.80
2012,08,16,01,53,16.70
2012,08,16,01,54,16.70
2012,08,16,01,55,16.70
2012,08,16,01,56,16.70
2012,08,16,01,57,16.70
2012,08,16,01,58,16.70
2012,08,16,01,59,16.70
2012,08,16,02,00,16.70
2012,08,16,02,01,16.70
2012,08,16,02,02,16.70
2012,08,16,02,03,16.70
2012,08,16,02,04,16.70
2012,08,16,02,05,16.70
2012,08,16,02,06,16.70
2012,08,16,02,07,16.70
2012,08,16,02,08,16.70
2012,08,16,02,09,16.70
2012,08,16,02,10,16.60
2012,08,16,02,11,16.60
2012,08,16,02,12,16.60
2012,08,16,02,13,16.60
2012,08,16,02,14,16.60
2012,08,16,02,15,16.60
2012,08,16,02,16,16.60
2012,08,16,02,17,16.50
2012,08,16,02,18,16.50
2012,08,16,02,19,16.50
2012,08,16,02,20,16.50
2012,08,16,02,21,16.50
2012,08,16,02,22,16.50
2012,08,16,02,23,16.50
2012,08,16,02,24,16.50
2012,08,16,02,25,16.50
2012,08,16,02,26,16.50
2012,08,16,02,27,16.50
2012,08,16,02,28,16.50
2012,08,16,02,29,16.50
2012,08,16,02,30,16.40
2012,08,16,02,31,16.40
2012,08,16,02,32,16.40
2012,08,16,02,33,16.40
2012,08,16,02,34,16.40
2012,08,16,02,35,16.40
2012,08,16,02,36,16.40
2012,08,16,02,37,16.30
2012,08,16,02,38,16.30
2012,08,16,02,39,16.30
2012,08,16,02,40,16.30
2012,08,16,02,41,16.30
2012,08,16,02,42,16.30
2012,08,16,02,43,16.30
2012,08,16,02,44,16.30
2012,08,16,02,45,16.30
2012,08,16,02,46,16.30
2012,08,16,02,47,16.20
2012,08,16,02,48,16.20
2012,08,16,02,49,16.20
2012,08,16,02,50,16.20
2012,08,16,02,51,16.20
2012,08,16,02,52,16.20
2012,08,16,02,53,16.20
2012,08,16,02,54,16.20
2012,08,16,02,55,16.20
2012,08,16,02,56,16.20
2012,08,16,02,57,16.20
2012,08,16,02,58,16.20
2012,08,16,02,59,16.20
2012,08,16,03,00,16.20
2012,08,16,03,01,16.20
2012,08,16,03,02,16.10
2012,08,16,03,03,16.10
2012,08,16,03,04,16.10
2012,08,16,03,05,16.10
2012,08,16,03,06,16.10
2012,08,16,03,07,16.10
2012,08,16,03,08,16.10
2012,08,16,03,09,16.10
2012,08,16,03,10,16.10
2012,08,16,03,11,16.10
2012,08,16,03,12,16.10
2012,08,16,03,13,16.10
2012,08,16,03,14,16.10
2012,08,16,03,15,16.00
2012,08,16,03,16,16.00
2012,08,16,03,17,16.00
2012,08,16,03,18,16.00
2012,08,16,03,19,16.00
2012,08,16,03,20,15.90
2012,08,16,03,21,15.90
2012,08,16,03,22,15.90
2012,08,16,03,23,15.90
2012,08,16,03,24,15.90
2012,08,16,03,25,15.90
2012,08,16,03,26,15.90
2012,08,16,03,27,15.90
2012,08,16,03,28,15.90
2012,08,16,03,29,15.90
2012,08,16,03,30,15.90
2012,08,16,03,31,15.80
2012,08,16,03,32,15.80
2012,08,16,03,33,15.80
2012,08,16,03,34,15.80
2012,08,16,03,35,15.80
2012,08,16,03,36,15.80
2012,08,16,03,37,15.80
2012,08,16,03,38,15.80
2012,08,16,03,39,15.80
2012,08,16,03,40,15.70
2012,08,16,03,41,15.70
2012,08,16,03,42,15.70
2012,08,16,03,43,15.70
2012,08,16,03,44,15.70
2012,08,16,03,45,15.70
2012,08,16,03,46,15.70
2012,08,16,03,47,15.70
2012,08,16,03,48,15.60
2012,08,16,03,49,15.60
2012,08,16,03,50,15.60
2012,08,16,03,51,15.60
2012,08,16,03,52,15.60
2012,08,16,03,53,15.60
2012,08,16,03,54,15.60
2012,08,16,03,55,15.60
2012,08,16,03,56,15.60
2012,08,16,03,57,15.60
2012,08,16,03,58,15.50
2012,08,16,03,59,15.50
2012,08,16,04,00,15.50
2012,08,16,04,01,15.50
2012,08,16,04,02,15.50
2012,08,16,04,03,15.50
2012,08,16,04,04,15.40
2012,08,16,04,05,15.40
2012,08,16,04,06,15.40
2012,08,16,04,07,15.40
2012,08,16,04,08,15.40
2012,08,16,04,09,15.40
2012,08,16,04,10,15.40
2012,08,16,04,11,15.40
2012,08,16,04,12,15.40
2012,08,16,04,13,15.30
2012,08,16,04,14,15.30
2012,08,16,04,15,15.30
2012,08,16,04,16,15.30
2012,08,16,04,17,15.30
2012,08,16,04,18,15.30
2012,08,16,04,19,15.30
2012,08,16,04,20,15.30
2012,08,16,04,21,15.30
2012,08,16,04,22,15.30
2012,08,16,04,23,15.30
2012,08,16,04,24,15.20
2012,08,16,04,25,15.20
2012,08,16,04,26,15.20
2012,08,16,04,27,15.20
2012,08,16,04,28,15.20
2012,08,16,04,29,15.20
2012,08,16,04,30,15.20
2012,08,16,04,31,15.20
2012,08,16,04,32,15.20
2012,08,16,04,33,15.10
2012,08,16,04,34,15.10
2012,08,16,04,35,15.10
2012,08,16,04,36,15.10
2012,08,16,04,37,15.00
2012,08,16,04,38,15.00
2012,08,16,04,39,15.00
2012,08,16,04,40,15.00
2012,08,16,04,41,15.00
2012,08,16,04,42,15.00
2012,08,16,04,43,15.00
2012,08,16,04,44,15.00
2012,08,16,04,45,15.00
2012,08,16,04,46,15.00
2012,08,16,04,47,15.00
2012,08,16,04,48,15.00
2012,08,16,04,49,15.00
2012,08,16,04,50,15.00
2012,08,16,04,51,15.00
2012,08,16,04,52,15.00
2012,08,16,04,53,15.00
2012,08,16,04,54,15.00
2012,08,16,04,55,15.00
2012,08,16,04,56,15.00
2012,08,16,04,57,15.00
2012,08,16,04,58,15.00
2012,08,16,04,59,15.00
2012,08,16,05,00,15.00
2012,08,16,05,01,15.00
2012,08,16,05,02,15.00
2012,08,16,05,03,15.00
2012,08,16,05,04,15.00
2012,08,16,05,05,15.00
2012,08,16,05,06,15.00
2012,08,16,05,07,15.00
2012,08,16,05,08,15.00
2012,08,16,05,09,14.90
2012,08,16,05,10,15.00
2012,08,16,05,11,14.90
2012,08,16,05,12,14.90
2012,08,16,05,13,14.90
2012,08,16,05,14,14.90
2012,08,16,05,15,14.90
2012,08,16,05,16,14.90
2012,08,16,05,17,14.90
2012,08,16,05,18,14.90
2012,08,16,05,19,14.80
2012,08,16,05,20,14.80
2012,08,16,05,21,14.80
2012,08,16,05,22,14.80
2012,08,16,05,23,14.80
2012,08,16,05,24,14.80
2012,08,16,05,25,14.70
2012,08,16,05,26,14.70
2012,08,16,05,27,14.70
2012,08,16,05,28,14.70
2012,08,16,05,29,14.70
2012,08,16,05,30,14.70
2012,08,16,05,31,14.70
2012,08,16,05,32,14.70
2012,08,16,05,33,14.70
2012,08,16,05,34,14.70
2012,08,16,05,35,14.70
2012,08,16,05,36,14.70
2012,08,16,05,37,14.70
2012,08,16,05,38,14.70
2012,08,16,05,39,14.70
2012,08,16,05,40,14.70
2012,08,16,05,41,14.70
2012,08,16,05,42,14.60
2012,08,16,05,43,14.60
2012,08,16,05,44,14.60
2012,08,16,05,45,14.60
2012,08,16,05,46,14.60
2012,08,16,05,47,14.60
2012,08,16,05,48,14.60
2012,08,16,05,49,14.60
2012,08,16,05,50,14.60
2012,08,16,05,51,14.60
2012,08,16,05,52,14.60
2012,08,16,05,53,14.60
2012,08,16,05,54,14.60
2012,08,16,05,55,14.50
2012,08,16,05,56,14.50
2012,08,16,05,57,14.50
2012,08,16,05,58,14.50
2012,08,16,05,59,14.50
2012,08,16,06,00,14.50
2012,08,16,06,01,14.50
2012,08,16,06,02,14.50
2012,08,16,06,03,14.40
2012,08,16,06,04,14.40
2012,08,16,06,05,14.40
2012,08,16,06,06,14.40
2012,08,16,06,07,14.40
2012,08,16,06,08,14.40
2012,08,16,06,09,14.40
2012,08,16,06,10,14.40
2012,08,16,06,11,14.40
2012,08,16,06,12,14.40
2012,08,16,06,13,14.40
2012,08,16,06,14,14.40
2012,08,16,06,15,14.40
2012,08,16,06,16,14.40
2012,08,16,06,17,14.40
2012,08,16,06,18,14.30
2012,08,16,06,19,14.30
2012,08,16,06,20,14.30
2012,08,16,06,21,14.30
2012,08,16,06,22,14.30
2012,08,16,06,23,14.30
2012,08,16,06,24,14.30
2012,08,16,06,25,14.30
2012,08,16,06,26,14.30
2012,08,16,06,27,14.30
2012,08,16,06,28,14.30
2012,08,16,06,29,14.30
2012,08,16,06,30,14.30
2012,08,16,06,31,14.30
2012,08,16,06,32,14.30
2012,08,16,06,33,14.30
2012,08,16,06,34,14.30
2012,08,16,06,35,14.30
2012,08,16,06,36,14.30
2012,08,16,06,37,14.30
2012,08,16,06,38,14.30
2012,08,16,06,39,14.30
2012,08,16,06,40,14.30
2012,08,16,06,41,14.30
2012,08,16,06,42,14.30
2012,08,16,06,43,14.30
2012,08,16,06,44,14.30
2012,08,16,06,45,14.30
2012,08,16,06,46,14.30
2012,08,16,06,47,14.30
2012,08,16,06,48,14.30
2012,08,16,06,49,14.30
2012,08,16,06,50,14.30
2012,08,16,06,51,14.30
2012,08,16,06,52,14.30
2012,08,16,06,53,14.30
2012,08,16,06,54,14.30
2012,08,16,06,55,14.30
2012,08,16,06,56,14.30
2012,08,16,06,57,14.30
2012,08,16,06,58,14.30
2012,08,16,06,59,14.30
2012,08,16,07,00,14.30
2012,08,16,07,01,14.30
2012,08,16,07,02,14.30
2012,08,16,07,03,14.30
2012,08,16,07,04,14.30
2012,08,16,07,05,14.30
2012,08,16,07,06,14.30
2012,08,16,07,07,14.40
2012,08,16,07,08,14.40
2012,08,16,07,09,14.40
2012,08,16,07,10,14.40
2012,08,16,07,11,14.40
2012,08,16,07,12,14.40
2012,08,16,07,13,14.40
2012,08,16,07,14,14.40
2012,08,16,07,15,14.40
2012,08,16,07,16,14.40
2012,08,16,07,17,14.40
2012,08,16,07,18,14.40
2012,08,16,07,19,14.40
2012,08,16,07,20,14.40
2012,08,16,07,21,14.40
2012,08,16,07,22,14.40
2012,08,16,07,23,14.40
2012,08,16,07,24,14.40
2012,08,16,07,25,14.40
2012,08,16,07,26,14.40
2012,08,16,07,27,14.40
2012,08,16,07,28,14.40
2012,08,16,07,29,14.40
2012,08,16,07,30,14.50
2012,08,16,07,31,14.50
2012,08,16,07,32,14.50
2012,08,16,07,33,14.50
2012,08,16,07,34,14.50
2012,08,16,07,35,14.50
2012,08,16,07,36,14.50
2012,08,16,07,37,14.50
2012,08,16,07,38,14.50
2012,08,16,07,39,14.60
2012,08,16,07,40,14.60
2012,08,16,07,41,14.60
2012,08,16,07,42,14.60
2012,08,16,07,43,14.60
2012,08,16,07,44,14.60
2012,08,16,07,45,14.60
2012,08,16,07,46,14.60
2012,08,16,07,47,14.70
2012,08,16,07,48,14.70
2012,08,16,07,49,14.70
2012,08,16,07,50,14.70
2012,08,16,07,51,14.70
2012,08,16,07,52,14.70
2012,08,16,07,53,14.80
2012,08,16,07,54,14.80
2012,08,16,07,55,14.80
2012,08,16,07,56,14.80
2012,08,16,07,57,14.80
2012,08,16,07,58,14.80
2012,08,16,07,59,14.80
2012,08,16,08,00,14.80
2012,08,16,08,01,14.80
2012,08,16,08,02,14.80
2012,08,16,08,03,14.90
2012,08,16,08,04,14.90
2012,08,16,08,05,14.90
2012,08,16,08,06,14.90
2012,08,16,08,07,15.00
2012,08,16,08,08,14.90
2012,08,16,08,09,15.00
2012,08,16,08,10,15.00
2012,08,16,08,11,15.00
2012,08,16,08,12,15.00
2012,08,16,08,13,15.00
2012,08,16,08,14,15.00
2012,08,16,08,15,15.00
2012,08,16,08,16,15.00
2012,08,16,08,17,15.00
2012,08,16,08,18,15.00
2012,08,16,08,19,15.00
2012,08,16,08,20,15.00
2012,08,16,08,21,15.00
2012,08,16,08,22,15.00
2012,08,16,08,23,15.10
2012,08,16,08,24,15.10
2012,08,16,08,25,15.20
2012,08,16,08,26,15.20
2012,08,16,08,27,15.20
2012,08,16,08,28,15.20
2012,08,16,08,29,15.30
2012,08,16,08,30,15.30
2012,08,16,08,31,15.30
2012,08,16,08,32,15.30
2012,08,16,08,33,15.30
2012,08,16,08,34,15.40
2012,08,16,08,35,15.40
2012,08,16,08,36,15.40
2012,08,16,08,37,15.40
2012,08,16,08,38,15.50
2012,08,16,08,39,15.50
2012,08,16,08,40,15.50
2012,08,16,08,41,15.60
2012,08,16,08,42,15.60
2012,08,16,08,43,15.60
2012,08,16,08,44,15.70
2012,08,16,08,45,15.70
2012,08,16,08,46,15.70
2012,08,16,08,47,15.80
2012,08,16,08,48,15.80
2012,08,16,08,49,15.90
2012,08,16,08,50,15.90
2012,08,16,08,51,16.00
2012,08,16,08,52,16.00
2012,08,16,08,53,16.10
2012,08,16,08,54,16.10
2012,08,16,08,55,16.20
2012,08,16,08,56,16.20
2012,08,16,08,57,16.30
2012,08,16,08,58,16.30
2012,08,16,08,59,16.40
2012,08,16,09,00,16.40
2012,08,16,09,01,16.50
2012,08,16,09,02,16.60
2012,08,16,09,03,16.80
2012,08,16,09,04,16.90
2012,08,16,09,05,17.10
2012,08,16,09,06,17.20
2012,08,16,09,07,17.40
2012,08,16,09,08,17.50
2012,08,16,09,09,17.70
2012,08,16,09,10,17.80
2012,08,16,09,11,17.90
2012,08,16,09,12,18.10
2012,08,16,09,13,18.20
2012,08,16,09,14,18.30
2012,08,16,09,15,18.40
2012,08,16,09,16,18.50
2012,08,16,09,17,18.60
2012,08,16,09,18,18.70
2012,08,16,09,19,18.70
2012,08,16,09,20,18.80
2012,08,16,09,21,18.90
2012,08,16,09,22,18.90
2012,08,16,09,23,18.90
2012,08,16,09,24,19.00
2012,08,16,09,25,19.10
2012,08,16,09,26,19.20
2012,08,16,09,27,19.20
2012,08,16,09,28,19.30
2012,08,16,09,29,19.30
2012,08,16,09,30,19.30
2012,08,16,09,31,19.40
2012,08,16,09,32,19.40
2012,08,16,09,33,19.40
2012,08,16,09,34,19.40
2012,08,16,09,35,19.40
2012,08,16,09,36,19.50
2012,08,16,09,37,19.50
2012,08,16,09,38,19.50
2012,08,16,09,39,19.60
2012,08,16,09,40,19.60
2012,08,16,09,41,19.60
2012,08,16,09,42,19.70
2012,08,16,09,43,19.70
2012,08,16,09,44,19.70
2012,08,16,09,45,19.80
2012,08,16,09,46,19.80
2012,08,16,09,47,19.80
2012,08,16,09,48,19.90
2012,08,16,09,49,20.00
2012,08,16,09,50,20.10
2012,08,16,09,51,20.20
2012,08,16,09,52,20.30
2012,08,16,09,53,20.30
2012,08,16,09,54,20.40
2012,08,16,09,55,20.40
2012,08,16,09,56,20.50
2012,08,16,09,57,20.60
2012,08,16,09,58,20.60
2012,08,16,09,59,20.70
2012,08,16,10,00,20.70
2012,08,16,10,01,20.80
2012,08,16,10,02,20.80
2012,08,16,10,03,20.90
2012,08,16,10,04,21.00
2012,08,16,10,05,21.10
2012,08,16,10,06,21.10
2012,08,16,10,07,21.20
2012,08,16,10,08,21.30
2012,08,16,10,09,21.40
2012,08,16,10,10,21.40
2012,08,16,10,11,21.50
2012,08,16,10,12,21.60
2012,08,16,10,13,21.70
2012,08,16,10,14,21.70
2012,08,16,10,15,21.80
2012,08,16,10,16,21.80
2012,08,16,10,17,21.90
2012,08,16,10,18,21.90
2012,08,16,10,19,22.00
2012,08,16,10,20,22.10
2012,08,16,10,21,22.10
2012,08,16,10,22,22.20
2012,08,16,10,23,22.20
2012,08,16,10,24,22.30
2012,08,16,10,25,22.30
2012,08,16,10,26,22.40
2012,08,16,10,27,22.40
2012,08,16,10,28,22.50
2012,08,16,10,29,22.60
2012,08,16,10,30,22.60
2012,08,16,10,31,22.70
2012,08,16,10,32,22.70
2012,08,16,10,33,22.70
2012,08,16,10,34,22.80
2012,08,16,10,35,22.80
2012,08,16,10,36,22.80
2012,08,16,10,37,22.80
2012,08,16,10,38,22.90
2012,08,16,10,39,22.90
2012,08,16,10,40,23.00
2012,08,16,10,41,23.00
2012,08,16,10,42,23.10
2012,08,16,10,43,23.20
2012,08,16,10,44,23.20
2012,08,16,10,45,23.30
2012,08,16,10,46,23.40
2012,08,16,10,47,23.50
2012,08,16,10,48,23.50
2012,08,16,10,49,23.60
2012,08,16,10,50,23.70
2012,08,16,10,51,23.80
2012,08,16,10,52,23.90
2012,08,16,10,53,23.90
2012,08,16,10,54,24.00
2012,08,16,10,55,24.10
2012,08,16,10,56,24.10
2012,08,16,10,57,24.10
2012,08,16,10,58,24.20
2012,08,16,10,59,24.20
2012,08,16,11,00,24.20
2012,08,16,11,01,24.20
2012,08,16,11,02,24.30
2012,08,16,11,03,24.30
2012,08,16,11,04,24.30
2012,08,16,11,05,24.30
2012,08,16,11,06,24.40
2012,08,16,11,07,24.40
2012,08,16,11,08,24.40
2012,08,16,11,09,24.40
2012,08,16,11,10,24.40
2012,08,16,11,11,24.40
2012,08,16,11,12,24.40
2012,08,16,11,13,24.50
2012,08,16,11,14,24.50
2012,08,16,11,15,24.60
2012,08,16,11,16,24.60
2012,08,16,11,17,24.60
2012,08,16,11,18,24.60
2012,08,16,11,19,24.70
2012,08,16,11,20,24.70
2012,08,16,11,21,24.70
2012,08,16,11,22,24.80
2012,08,16,11,23,24.90
2012,08,16,11,24,24.90
2012,08,16,11,25,25.00
2012,08,16,11,26,25.10
2012,08,16,11,27,25.10
2012,08,16,11,28,25.10
2012,08,16,11,29,25.10
2012,08,16,11,30,25.20
2012,08,16,11,31,25.20
2012,08,16,11,32,25.30
2012,08,16,11,33,25.40
2012,08,16,11,34,25.50
2012,08,16,11,35,25.50
2012,08,16,11,36,25.60
2012,08,16,11,37,25.60
2012,08,16,11,38,25.60
2012,08,16,11,39,25.60
2012,08,16,11,40,25.60
2012,08,16,11,41,25.60
2012,08,16,11,42,25.60
2012,08,16,11,43,25.60
2012,08,16,11,44,25.60
2012,08,16,11,45,25.60
2012,08,16,11,46,25.60
2012,08,16,11,47,25.70
2012,08,16,11,48,25.70
2012,08,16,11,49,25.70
2012,08,16,11,50,25.70
2012,08,16,11,51,25.70
2012,08,16,11,52,25.80
2012,08,16,11,53,25.90
2012,08,16,11,54,25.90
2012,08,16,11,55,25.90
2012,08,16,11,56,25.90
2012,08,16,11,57,25.90
2012,08,16,11,58,25.90
2012,08,16,11,59,26.00
2012,08,16,12,00,26.00
2012,08,16,12,01,26.10
2012,08,16,12,02,26.10
2012,08,16,12,03,26.20
2012,08,16,12,04,26.30
2012,08,16,12,05,26.40
2012,08,16,12,06,26.50
2012,08,16,12,07,26.50
2012,08,16,12,08,26.60
2012,08,16,12,09,26.70
2012,08,16,12,10,26.80
2012,08,16,12,11,26.90
2012,08,16,12,12,26.90
2012,08,16,12,13,27.00
2012,08,16,12,14,27.10
2012,08,16,12,15,27.10
2012,08,16,12,16,27.20
2012,08,16,12,17,27.20
2012,08,16,12,18,27.30
2012,08,16,12,19,27.30
2012,08,16,12,20,27.40
2012,08,16,12,21,27.40
2012,08,16,12,22,27.50
2012,08,16,12,23,27.60
2012,08,16,12,24,27.60
2012,08,16,12,25,27.70
2012,08,16,12,26,27.70
2012,08,16,12,27,27.80
2012,08,16,12,28,27.80
2012,08,16,12,29,27.90
2012,08,16,12,30,27.90
2012,08,16,12,31,27.90
2012,08,16,12,32,28.00
2012,08,16,12,33,28.00
2012,08,16,12,34,28.00
2012,08,16,12,35,28.00
2012,08,16,12,36,28.00
2012,08,16,12,37,28.10
2012,08,16,12,38,28.10
2012,08,16,12,39,28.10
2012,08,16,12,40,28.20
2012,08,16,12,41,28.20
2012,08,16,12,42,28.20
2012,08,16,12,43,28.20
2012,08,16,12,44,28.20
2012,08,16,12,45,28.20
2012,08,16,12,46,28.20
2012,08,16,12,47,28.20
2012,08,16,12,48,28.20
2012,08,16,12,49,28.20
2012,08,16,12,50,28.20
2012,08,16,12,51,28.30
2012,08,16,12,52,28.30
2012,08,16,12,53,28.30
2012,08,16,12,54,28.30
2012,08,16,12,55,28.30
2012,08,16,12,56,28.40
2012,08,16,12,57,28.40
2012,08,16,12,58,28.40
2012,08,16,12,59,28.40
2012,08,16,13,00,28.40
2012,08,16,13,01,28.40
2012,08,16,13,02,28.50
2012,08,16,13,03,28.50
2012,08,16,13,04,28.60
2012,08,16,13,05,28.60
2012,08,16,13,06,28.60
2012,08,16,13,07,28.60
2012,08,16,13,08,28.60
2012,08,16,13,09,28.60
2012,08,16,13,10,28.60
2012,08,16,13,11,28.60
2012,08,16,13,12,28.60
2012,08,16,13,13,28.60
2012,08,16,13,14,28.60
2012,08,16,13,15,28.70
2012,08,16,13,16,28.70
2012,08,16,13,17,28.70
2012,08,16,13,18,28.70
2012,08,16,13,19,28.70
2012,08,16,13,20,28.70
2012,08,16,13,21,28.70
2012,08,16,13,22,28.70
2012,08,16,13,23,28.70
2012,08,16,13,24,28.70
2012,08,16,13,25,28.70
2012,08,16,13,26,28.70
2012,08,16,13,27,28.70
2012,08,16,13,28,28.70
2012,08,16,13,29,28.70
2012,08,16,13,30,28.80
2012,08,16,13,31,28.80
2012,08,16,13,32,28.80
2012,08,16,13,33,28.80
2012,08,16,13,34,28.80
2012,08,16,13,35,28.80
2012,08,16,13,36,28.90
2012,08,16,13,37,28.90
2012,08,16,13,38,28.90
2012,08,16,13,39,29.00
2012,08,16,13,40,29.00
2012,08,16,13,41,29.10
2012,08,16,13,42,29.10
2012,08,16,13,43,29.10
2012,08,16,13,44,29.10
2012,08,16,13,45,29.20
2012,08,16,13,46,29.20
2012,08,16,13,47,29.20
2012,08,16,13,48,29.20
2012,08,16,13,49,29.20
2012,08,16,13,50,29.20
2012,08,16,13,51,29.20
2012,08,16,13,52,29.30
2012,08,16,13,53,29.30
2012,08,16,13,54,29.30
2012,08,16,13,55,29.40
2012,08,16,13,56,29.40
2012,08,16,13,57,29.50
2012,08,16,13,58,29.60
2012,08,16,13,59,29.60
2012,08,16,14,00,29.60
2012,08,16,14,01,29.70
2012,08,16,14,02,29.70
2012,08,16,14,03,29.70
2012,08,16,14,04,29.70
2012,08,16,14,05,29.80
2012,08,16,14,06,29.80
2012,08,16,14,07,29.80
2012,08,16,14,08,29.80
2012,08,16,14,09,29.80
2012,08,16,14,10,29.80
2012,08,16,14,11,29.80
2012,08,16,14,12,29.90
2012,08,16,14,13,29.90
2012,08,16,14,14,29.90
2012,08,16,14,15,30.00
2012,08,16,14,16,30.00
2012,08,16,14,17,30.00
2012,08,16,14,18,30.00
2012,08,16,14,19,30.00
2012,08,16,14,20,30.10
2012,08,16,14,21,30.10
2012,08,16,14,22,30.10
2012,08,16,14,23,30.10
2012,08,16,14,24,30.10
2012,08,16,14,25,30.20
2012,08,16,14,26,30.10
2012,08,16,14,27,30.10
2012,08,16,14,28,30.10
2012,08,16,14,29,30.00
2012,08,16,14,30,30.00
2012,08,16,14,31,29.90
2012,08,16,14,32,29.90
2012,08,16,14,33,29.90
2012,08,16,14,34,29.90
2012,08,16,14,35,29.90
2012,08,16,14,36,29.90
2012,08,16,14,37,30.00
2012,08,16,14,38,30.00
2012,08,16,14,39,30.10
2012,08,16,14,40,30.20
2012,08,16,14,41,30.20
2012,08,16,14,42,30.30
2012,08,16,14,43,30.30
2012,08,16,14,44,30.40
2012,08,16,14,45,30.50
2012,08,16,14,46,30.60
2012,08,16,14,47,30.70
2012,08,16,14,48,30.80
2012,08,16,14,49,30.80
2012,08,16,14,50,30.90
2012,08,16,14,51,30.90
2012,08,16,14,52,31.00
2012,08,16,14,53,31.10
2012,08,16,14,54,31.10
2012,08,16,14,55,31.10
2012,08,16,14,56,31.20
2012,08,16,14,57,31.30
2012,08,16,14,58,31.40
2012,08,16,14,59,31.40
2012,08,16,15,00,31.50
2012,08,16,15,01,31.50
2012,08,16,15,02,31.60
2012,08,16,15,03,31.70
2012,08,16,15,04,31.70
2012,08,16,15,05,31.70
2012,08,16,15,06,31.70
2012,08,16,15,07,31.80
2012,08,16,15,08,31.80
2012,08,16,15,09,31.90
2012,08,16,15,10,31.90
2012,08,16,15,11,31.90
2012,08,16,15,12,32.00
2012,08,16,15,13,32.00
2012,08,16,15,14,32.10
2012,08,16,15,15,32.20
2012,08,16,15,16,32.30
2012,08,16,15,17,32.30
2012,08,16,15,18,32.40
2012,08,16,15,19,32.50
2012,08,16,15,20,32.60
2012,08,16,15,21,32.70
2012,08,16,15,22,32.70
2012,08,16,15,23,32.70
2012,08,16,15,24,32.80
2012,08,16,15,25,32.80
2012,08,16,15,26,32.90
2012,08,16,15,27,32.90
2012,08,16,15,28,32.90
2012,08,16,15,29,32.90
2012,08,16,15,30,32.90
2012,08,16,15,31,33.00
2012,08,16,15,32,33.00
2012,08,16,15,33,33.00
2012,08,16,15,34,33.10
2012,08,16,15,35,33.10
2012,08,16,15,36,33.00
2012,08,16,15,37,33.00
2012,08,16,15,38,33.00
2012,08,16,15,39,33.00
2012,08,16,15,40,33.00
2012,08,16,15,41,33.00
2012,08,16,15,42,33.00
2012,08,16,15,43,33.00
2012,08,16,15,44,32.90
2012,08,16,15,45,32.90
2012,08,16,15,46,32.80
2012,08,16,15,47,32.70
2012,08,16,15,48,32.70
2012,08,16,15,49,32.70
2012,08,16,15,50,32.70
2012,08,16,15,51,32.70
2012,08,16,15,52,32.70
2012,08,16,15,53,32.70
2012,08,16,15,54,32.70
2012,08,16,15,55,32.70
2012,08,16,15,56,32.80
2012,08,16,15,57,32.80
2012,08,16,15,58,32.80
2012,08,16,15,59,32.90
2012,08,16,16,00,33.00
2012,08,16,16,01,33.10
2012,08,16,16,02,33.10
2012,08,16,16,03,33.20
2012,08,16,16,04,33.20
2012,08,16,16,05,33.20
2012,08,16,16,06,33.30
2012,08,16,16,07,33.30
2012,08,16,16,08,33.40
2012,08,16,16,09,33.40
2012,08,16,16,10,33.40
2012,08,16,16,11,33.40
2012,08,16,16,12,33.50
2012,08,16,16,13,33.50
2012,08,16,16,14,33.60
2012,08,16,16,15,33.70
2012,08,16,16,16,33.80
2012,08,16,16,17,33.90
2012,08,16,16,18,33.90
2012,08,16,16,19,33.90
2012,08,16,16,20,34.00
2012,08,16,16,21,34.00
2012,08,16,16,22,34.00
2012,08,16,16,23,33.90
2012,08,16,16,24,33.80
2012,08,16,16,25,33.80
2012,08,16,16,26,33.80
2012,08,16,16,27,33.80
2012,08,16,16,28,33.80
2012,08,16,16,29,33.80
2012,08,16,16,30,33.90
2012,08,16,16,31,33.90
2012,08,16,16,32,34.00
2012,08,16,16,33,34.00
2012,08,16,16,34,33.90
2012,08,16,16,35,33.90
2012,08,16,16,36,33.90
2012,08,16,16,37,33.90
2012,08,16,16,38,33.90
2012,08,16,16,39,33.90
2012,08,16,16,40,33.80
2012,08,16,16,41,33.80
2012,08,16,16,42,33.80
2012,08,16,16,43,33.80
2012,08,16,16,44,33.70
2012,08,16,16,45,33.70
2012,08,16,16,46,33.60
2012,08,16,16,47,33.60
2012,08,16,16,48,33.50
2012,08,16,16,49,33.50
2012,08,16,16,50,33.40
2012,08,16,16,51,33.30
2012,08,16,16,52,33.20
2012,08,16,16,53,33.20
2012,08,16,16,54,33.10
2012,08,16,16,55,33.00
2012,08,16,16,56,32.90
2012,08,16,16,57,32.80
2012,08,16,16,58,32.70
2012,08,16,16,59,32.50
2012,08,16,17,00,32.30
2012,08,16,17,01,32.10
2012,08,16,17,02,32.00
2012,08,16,17,03,31.80
2012,08,16,17,04,31.70
2012,08,16,17,05,31.60
2012,08,16,17,06,31.60
2012,08,16,17,07,31.60
2012,08,16,17,08,31.50
2012,08,16,17,09,31.50
2012,08,16,17,10,31.50
2012,08,16,17,11,31.50
2012,08,16,17,12,31.50
2012,08,16,17,13,31.40
2012,08,16,17,14,31.40
2012,08,16,17,15,31.30
2012,08,16,17,16,31.20
2012,08,16,17,17,31.10
2012,08,16,17,18,31.00
2012,08,16,17,19,31.00